Consulta les dades en temps real de l'estació municipal de El Brull
| Hora UTC | 07:50 |
|---|---|
| Temperatura | 22.8 ºC |
| Humitat | 68.0 % |
| Pressió | 1023.6 hPa |
| Pluja | 0.0 mm |
| Velocitat vent | 3.0 km/h |
| Direcció vent | NNW |
| Radiació solar | 387.5 W/m² |
| Temperatura (ºC) | Humitat (%) | Pressió (hPa) | Velocitat vent (km/h) | Precipitació (mm) | Radiació solar (W/m²) | |||||||||||||
|---|---|---|---|---|---|---|---|---|---|---|---|---|---|---|---|---|---|---|
| Hora UTC | Aire | Humitat | Pressió | Vel. | Dir. | Vel. Max | Dir. | Intent. màx 5 min. | Rad. Sol. | |||||||||
| 00:10 | 18.6 | 79.0 | 1023.1 | 2.3 | SSE | 4.0 | S | 0.0 | 0.0 | |||||||||
| 00:20 | 18.7 | 78.7 | 1023.0 | 1.3 | SSW | 3.5 | SSW | 0.0 | 0.0 | |||||||||
| 00:40 | 18.3 | 79.2 | 1023.0 | 1.7 | SE | 2.9 | SE | 0.0 | 0.0 | |||||||||
| 00:50 | 18.3 | 80.3 | 1023.0 | 0.0 | S | 1.3 | SSW | 0.0 | 0.0 | |||||||||
| 01:00 | 18.3 | 80.4 | 1023.0 | 0.7 | SSE | 3.8 | SSE | 0.0 | 0.0 | |||||||||
| 01:10 | 18.1 | 79.9 | 1023.0 | 2.2 | ESE | 4.1 | ESE | 0.0 | 0.0 | |||||||||
| 01:20 | 18.1 | 79.6 | 1023.0 | 2.2 | SE | 4.4 | SE | 0.0 | 0.0 | |||||||||
| 01:30 | 18.2 | 79.6 | 1022.8 | 2.8 | ESE | 4.6 | ESE | 0.0 | 0.0 | |||||||||
| 01:40 | 18.2 | 79.9 | 1022.7 | 3.0 | SE | 5.8 | SE | 0.0 | 0.0 | |||||||||
| 01:50 | 18.3 | 79.6 | 1022.8 | 2.2 | ESE | 5.8 | SE | 0.0 | 0.0 | |||||||||
| 02:00 | 18.4 | 79.3 | 1022.9 | 1.0 | ENE | 2.6 | ENE | 0.0 | 0.0 | |||||||||
| 02:20 | 18.2 | 81.5 | 1022.8 | 1.2 | NE | 3.4 | NE | 0.0 | 0.0 | |||||||||
| 02:30 | 18.2 | 82.1 | 1022.7 | 1.9 | E | 4.0 | SSE | 0.0 | 0.0 | |||||||||
| 02:40 | 18.2 | 81.7 | 1022.8 | 1.8 | ESE | 4.8 | SE | 0.0 | 0.0 | |||||||||
| 02:50 | 18.1 | 80.3 | 1022.8 | 1.9 | E | 4.8 | SE | 0.0 | 0.0 | |||||||||
| 03:00 | 18.1 | 80.2 | 1022.8 | 1.3 | SE | 3.4 | SSE | 0.0 | 0.0 | |||||||||
| 03:10 | 18.2 | 81.5 | 1022.9 | 1.9 | ESE | 7.1 | SE | 0.0 | 0.0 | |||||||||
| 03:20 | 18.1 | 81.6 | 1022.9 | 1.6 | E | 6.1 | SE | 0.0 | 0.0 | |||||||||
| 03:30 | 18.3 | 80.9 | 1022.8 | 2.4 | ENE | 5.2 | ENE | 0.0 | 0.0 | |||||||||
| 03:40 | 18.3 | 81.5 | 1022.9 | 0.9 | ENE | 2.4 | NE | 0.0 | 0.0 | |||||||||
| 03:50 | 18.4 | 82.5 | 1022.8 | 0.2 | NE | 1.4 | NE | 0.0 | 0.0 | |||||||||
| 04:00 | 18.2 | 83.4 | 1022.8 | 0.0 | NE | 0.8 | NE | 0.0 | 0.0 | |||||||||
| 04:10 | 18.0 | 83.9 | 1022.7 | 1.2 | ENE | 3.1 | ENE | 0.0 | 0.0 | |||||||||
| 04:20 | 18.0 | 84.4 | 1022.6 | 1.0 | ENE | 3.5 | NE | 0.0 | 0.0 | |||||||||
| 04:30 | 18.1 | 82.2 | 1022.6 | 1.4 | E | 4.5 | E | 0.0 | 0.0 | |||||||||
| 04:40 | 18.1 | 81.1 | 1022.6 | 2.2 | NE | 4.4 | NE | 0.0 | 0.0 | |||||||||
| 04:50 | 17.8 | 83.2 | 1022.6 | 0.4 | NNE | 2.0 | NNW | 0.0 | 0.0 | |||||||||
| 05:00 | 18.1 | 83.6 | 1022.6 | 0.6 | NE | 1.6 | NE | 0.0 | 0.2 | |||||||||
| 05:10 | 17.9 | 82.4 | 1022.6 | 0.3 | ENE | 2.6 | ENE | 0.0 | 1.0 | |||||||||
| 05:20 | 17.7 | 81.8 | 1022.7 | 1.5 | ENE | 7.2 | ENE | 0.0 | 3.0 | |||||||||
| 05:30 | 17.9 | 80.0 | 1022.7 | 2.0 | NE | 4.5 | ENE | 0.0 | 6.8 | |||||||||
| 05:40 | 18.0 | 82.6 | 1022.8 | 3.3 | N | 6.7 | N | 0.0 | 11.4 | |||||||||
| 05:50 | 17.7 | 83.9 | 1022.8 | 2.0 | N | 4.8 | N | 0.0 | 15.7 | |||||||||
| 06:00 | 17.5 | 83.9 | 1022.9 | 0.5 | NNE | 3.1 | N | 0.0 | 19.5 | |||||||||
| 06:10 | 17.7 | 83.8 | 1022.9 | 1.9 | NE | 2.9 | ENE | 0.0 | 25.0 | |||||||||
| 06:20 | 18.0 | 78.7 | 1023.0 | 1.3 | E | 4.1 | NNW | 0.0 | 30.1 | |||||||||
| 06:30 | 18.4 | 79.2 | 1023.1 | 2.1 | N | 4.2 | N | 0.0 | 45.7 | |||||||||
| 06:40 | 18.5 | 79.3 | 1023.2 | 4.0 | NNW | 6.7 | N | 0.0 | 153.7 | |||||||||
| 06:50 | 18.7 | 79.0 | 1023.3 | 4.1 | NNW | 7.3 | N | 0.0 | 201.2 | |||||||||
| 07:00 | 19.4 | 76.6 | 1023.6 | 3.4 | NNW | 7.5 | NNW | 0.0 | 232.2 | |||||||||
| 07:10 | 20.0 | 75.3 | 1023.6 | 3.7 | NNW | 7.5 | NNW | 0.0 | 262.5 | |||||||||
| 07:20 | 21.1 | 71.6 | 1023.5 | 2.3 | SSW | 5.6 | S | 0.0 | 293.9 | |||||||||
| 07:30 | 22.5 | 64.1 | 1023.5 | 1.8 | SSW | 4.6 | SSE | 0.0 | 326.1 | |||||||||
| 07:40 | 23.2 | 63.5 | 1023.5 | 1.8 | WNW | 4.7 | NW | 0.0 | 356.8 | |||||||||
| 07:50 | 22.8 | 68.0 | 1023.6 | 3.0 | NNW | 8.8 | N | 0.0 | 387.5 | |||||||||
| Màxima | 23.2 | 84.4 | 1023.6 | 4.1 | NNW | 8.8 | N | 0.0 | 387.5 | |||||||||
| Mínima | 17.5 | 63.5 | 1022.6 | |||||||||||||||
| Total | 0.0 | |||||||||||||||||